When you browse on this site, cookies collect data to enhance your experience and personalize the content and advertising you see.
Visit our Privacy Policy to learn more. By continuing to use the site, you agree to this use of cookies and data.
  • In Czech Republic
  • List of Countries
  • For 7 days
  • Water Temperature
  • Weather Map
  • Weather Widgets
  • user-avatar
    Login

    Hourly Weather Mainz

    Today, 22 October, Tuesday

    Time Temperature Precipitation Wind Pressure Humidity
    00:00 +13°C° 0 mm 1 mps 758 mmHg 86%
    01:00 +13°C° 0 mm 1 mps 758 mmHg 86%
    02:00 +13°C° 0 mm 1 mps 758 mmHg 85%
    03:00 +12°C° 0 mm 0 mps 758 mmHg 84%
    04:00 +12°C° 0 mm 0 mps 758 mmHg 83%
    05:00 +12°C° 0 mm 0 mps 758 mmHg 83%
    06:00 +12°C° 0 mm 0 mps 758 mmHg 83%
    07:00 +12°C° 0 mm 0 mps 758 mmHg 82%
    08:00 +13°C° 0 mm 0 mps 758 mmHg 79%
    09:00 +13°C° 0 mm 0 mps 759 mmHg 77%
    10:00 +14°C° 0 mm 0 mps 759 mmHg 74%
    11:00 +15°C° 0 mm 0 mps 759 mmHg 69%
    12:00 +18°C° 0 mm 1 mps 759 mmHg 64%
    13:00 +19°C° 0 mm 1 mps 758 mmHg 60%
    14:00 +19°C° 0 mm 1 mps 758 mmHg 60%
    15:00 +19°C° 0 mm 1 mps 758 mmHg 61%
    16:00 +17°C° 0 mm 0 mps 757 mmHg 62%
    17:00 +18°C° 0 mm 1 mps 758 mmHg 67%
    18:00 +15°C° 0 mm 1 mps 758 mmHg 72%
    19:00 +14°C° 0 mm 1 mps 758 mmHg 76%
    20:00 +14°C° 0 mm 1 mps 758 mmHg 77%
    21:00 +13°C° 0 mm 1 mps 757 mmHg 77%
    22:00 +13°C° 0 mm 1 mps 757 mmHg 78%
    23:00 +13°C° 0 mm 1 mps 757 mmHg 79%

    Tomorrow, 23 October, Wednesday

    Time Temperature Precipitation Wind Pressure Humidity
    00:00 +13°C° 0 mm 1 mps 757 mmHg 79%
    01:00 +12°C° 0 mm 1 mps 757 mmHg 80%
    02:00 +12°C° 0 mm 1 mps 756 mmHg 81%
    03:00 +12°C° 0 mm 1 mps 756 mmHg 82%
    04:00 +12°C° 0 mm 1 mps 755 mmHg 84%
    05:00 +12°C° 0 mm 1 mps 755 mmHg 85%
    06:00 +12°C° 0 mm 1 mps 755 mmHg 87%
    07:00 +12°C° 0 mm 1 mps 754 mmHg 88%
    08:00 +13°C° 0 mm 2 mps 754 mmHg 85%
    09:00 +14°C° 0 mm 2 mps 754 mmHg 82%
    10:00 +16°C° 0 mm 2 mps 753 mmHg 79%
    11:00 +16°C° 0 mm 2 mps 753 mmHg 78%
    12:00 +17°C° 0 mm 2 mps 753 mmHg 77%
    13:00 +18°C° 0 mm 3 mps 752 mmHg 75%
    14:00 +18°C° 0 mm 3 mps 752 mmHg 76%
    15:00 +18°C° 0 mm 3 mps 751 mmHg 77%
    16:00 +18°C° 0 mm 3 mps 751 mmHg 78%
    17:00 +18°C° 0 mm 3 mps 750 mmHg 81%
    18:00 +17°C° 0 mm 2 mps 750 mmHg 83%
    19:00 +16°C° 0 mm 2 mps 750 mmHg 86%
    20:00 +16°C° 0 mm 2 mps 750 mmHg 87%
    21:00 +15°C° 0 mm 2 mps 749 mmHg 89%
    22:00 +15°C° 0 mm 2 mps 749 mmHg 91%
    23:00 +15°C° 0 mm 2 mps 749 mmHg 91%

    Day after tomorrow, 24 October, Thursday

    Time Temperature Precipitation Wind Pressure Humidity
    00:00 +14°C° 0 mm 2 mps 748 mmHg 92%
    01:00 +14°C° 0 mm 1 mps 748 mmHg 93%
    02:00 +14°C° 0 mm 1 mps 748 mmHg 93%
    03:00 +13°C° 0 mm 1 mps 747 mmHg 94%
    04:00 +13°C° 0 mm 1 mps 747 mmHg 94%
    05:00 +13°C° 0 mm 1 mps 747 mmHg 95%
    06:00 +13°C° 0 mm 1 mps 747 mmHg 95%
    07:00 +12°C° 0 mm 0 mps 747 mmHg 95%
    08:00 +14°C° 0 mm 1 mps 747 mmHg 92%
    09:00 +15°C° 0 mm 1 mps 748 mmHg 88%
    10:00 +16°C° 0 mm 2 mps 748 mmHg 84%
    11:00 +17°C° 0 mm 2 mps 748 mmHg 79%
    12:00 +18°C° 0 mm 2 mps 748 mmHg 74%
    13:00 +20°C° 0 mm 2 mps 748 mmHg 68%
    14:00 +20°C° 0 mm 2 mps 748 mmHg 70%
    15:00 +20°C° 0 mm 2 mps 749 mmHg 71%
    16:00 +19°C° 0 mm 2 mps 749 mmHg 73%
    17:00 +19°C° 0 mm 2 mps 749 mmHg 75%
    18:00 +18°C° 0 mm 2 mps 749 mmHg 77%
    19:00 +17°C° 0 mm 2 mps 750 mmHg 79%
    20:00 +16°C° 0 mm 2 mps 750 mmHg 78%
    21:00 +16°C° 0 mm 3 mps 750 mmHg 77%
    22:00 +14°C° 0 mm 3 mps 751 mmHg 76%
    23:00 +14°C° 0 mm 3 mps 751 mmHg 77%

    25 October, Friday

    Time Temperature Precipitation Wind Pressure Humidity
    00:00 +13°C° 0 mm 4 mps 752 mmHg 78%
    01:00 +13°C° 0 mm 4 mps 752 mmHg 79%
    02:00 +13°C° 0 mm 4 mps 753 mmHg 79%
    03:00 +13°C° 0 mm 4 mps 753 mmHg 79%
    04:00 +13°C° 0 mm 4 mps 754 mmHg 79%
    05:00 +13°C° 0 mm 3 mps 754 mmHg 81%
    06:00 +12°C° 0 mm 3 mps 755 mmHg 82%
    07:00 +12°C° 0 mm 3 mps 755 mmHg 84%
    08:00 +12°C° 0 mm 3 mps 756 mmHg 80%
    09:00 +13°C° 0 mm 4 mps 756 mmHg 76%
    10:00 +13°C° 0 mm 4 mps 756 mmHg 72%
    11:00 +14°C° 0 mm 4 mps 756 mmHg 68%
    12:00 +14°C° 0 mm 4 mps 756 mmHg 64%
    13:00 +15°C° 0 mm 4 mps 756 mmHg 60%
    14:00 +15°C° 0 mm 4 mps 756 mmHg 61%
    15:00 +16°C° 0 mm 3 mps 755 mmHg 63%
    16:00 +16°C° 0 mm 3 mps 755 mmHg 64%
    17:00 +14°C° 0 mm 3 mps 755 mmHg 67%
    18:00 +13°C° 0 mm 3 mps 754 mmHg 70%
    19:00 +13°C° 0 mm 3 mps 754 mmHg 73%
    20:00 +12°C° 0 mm 3 mps 754 mmHg 73%
    21:00 +12°C° 0 mm 3 mps 754 mmHg 74%
    22:00 +12°C° 0 mm 3 mps 754 mmHg 75%
    23:00 +12°C° 0 mm 3 mps 754 mmHg 75%

    26 October, Saturday

    Time Temperature Precipitation Wind Pressure Humidity
    00:00 +12°C° 0 mm 4 mps 753 mmHg 74%
    01:00 +12°C° 0 mm 4 mps 753 mmHg 74%
    02:00 +12°C° 0 mm 4 mps 753 mmHg 75%
    03:00 +12°C° 0 mm 4 mps 752 mmHg 76%
    04:00 +12°C° 0 mm 4 mps 752 mmHg 77%
    05:00 +12°C° 0 mm 4 mps 752 mmHg 76%
    06:00 +12°C° 0 mm 4 mps 752 mmHg 76%
    07:00 +12°C° 0 mm 4 mps 752 mmHg 75%
    08:00 +13°C° 0 mm 4 mps 753 mmHg 75%
    09:00 +13°C° 0 mm 5 mps 753 mmHg 74%
    10:00 +14°C° 0 mm 5 mps 753 mmHg 73%
    11:00 +14°C° 0 mm 4 mps 753 mmHg 76%
    12:00 +14°C° 0 mm 4 mps 754 mmHg 79%
    13:00 +14°C° 0 mm 4 mps 754 mmHg 81%
    14:00 +14°C° 0.3 mm 3 mps 754 mmHg 83%
    15:00 +13°C° 0.3 mm 3 mps 754 mmHg 86%
    16:00 +14°C° 0.3 mm 2 mps 754 mmHg 88%
    17:00 +13°C° 0.3 mm 2 mps 754 mmHg 88%
    18:00 +13°C° 0.3 mm 2 mps 754 mmHg 88%
    19:00 +12°C° 0.3 mm 2 mps 755 mmHg 88%
    20:00 +10°C° 0.4 mm 2 mps 755 mmHg 87%
    21:00 +10°C° 0.4 mm 2 mps 755 mmHg 86%
    22:00 +9°C° 0.4 mm 2 mps 755 mmHg 84%
    23:00 +10°C° 0.2 mm 1 mps 755 mmHg 84%

    27 October, Sunday

    Time Temperature Precipitation Wind Pressure Humidity
    00:00 +10°C° 0.2 mm 1 mps 755 mmHg 83%
    01:00 +10°C° 0.2 mm 1 mps 755 mmHg 83%
    02:00 +9°C° 0.2 mm 1 mps 755 mmHg 83%
    03:00 +9°C° 0.2 mm 1 mps 755 mmHg 83%
    04:00 +9°C° 0.2 mm 1 mps 755 mmHg 82%
    05:00 +9°C° 0.3 mm 1 mps 756 mmHg 82%
    06:00 +9°C° 0.3 mm 1 mps 756 mmHg 82%
    07:00 +9°C° 0.3 mm 1 mps 757 mmHg 81%
    08:00 +9°C° 0.1 mm 1 mps 757 mmHg 78%
    09:00 +9°C° 0.1 mm 1 mps 758 mmHg 74%
    10:00 +9°C° 0.1 mm 1 mps 758 mmHg 71%
    11:00 +9°C° 0 mm 1 mps 758 mmHg 68%
    12:00 +10°C° 0 mm 1 mps 758 mmHg 65%
    13:00 +10°C° 0 mm 1 mps 758 mmHg 62%
    14:00 +10°C° 0 mm 1 mps 758 mmHg 62%
    15:00 +10°C° 0 mm 1 mps 758 mmHg 61%
    16:00 +9°C° 0 mm 0 mps 758 mmHg 60%
    17:00 +9°C° 0 mm 0 mps 758 mmHg 62%
    18:00 +8°C° 0 mm 0 mps 758 mmHg 64%
    19:00 +8°C° 0 mm 0 mps 758 mmHg 67%
    20:00 +8°C° 0 mm 0 mps 758 mmHg 68%
    21:00 +8°C° 0 mm 0 mps 758 mmHg 69%
    22:00 +8°C° 0 mm 0 mps 759 mmHg 70%
    23:00 +7°C° 0 mm 0 mps 758 mmHg 71%

    28 October, Monday

    Time Temperature Precipitation Wind Pressure Humidity
    00:00 +7°C° 0 mm 0 mps 758 mmHg 71%
    01:00 +7°C° 0 mm 0 mps 758 mmHg 72%
    02:00 +7°C° 0 mm 0 mps 757 mmHg 72%
    03:00 +8°C° 0 mm 1 mps 757 mmHg 71%
    04:00 +8°C° 0 mm 1 mps 757 mmHg 71%
    05:00 +8°C° 0 mm 1 mps 757 mmHg 70%
    06:00 +8°C° 0 mm 1 mps 757 mmHg 70%
    07:00 +7°C° 0 mm 1 mps 757 mmHg 69%
    08:00 +8°C° 0 mm 1 mps 757 mmHg 66%
    09:00 +9°C° 0 mm 1 mps 757 mmHg 63%
    10:00 +9°C° 0 mm 1 mps 757 mmHg 59%
    11:00 +10°C° 0 mm 1 mps 757 mmHg 55%
    12:00 +10°C° 0 mm 2 mps 756 mmHg 51%
    13:00 +12°C° 0 mm 2 mps 756 mmHg 47%
    14:00 +10°C° 0 mm 2 mps 756 mmHg 48%
    15:00 +11°C° 0 mm 1 mps 756 mmHg 49%
    16:00 +11°C° 0 mm 1 mps 755 mmHg 50%
    17:00 +10°C° 0 mm 1 mps 755 mmHg 55%
    18:00 +9°C° 0 mm 1 mps 756 mmHg 61%
    19:00 +8°C° 0 mm 1 mps 756 mmHg 66%
    20:00 +8°C° 0 mm 1 mps 756 mmHg 68%
    21:00 +7°C° 0 mm 2 mps 756 mmHg 69%
    22:00 +6°C° 0 mm 2 mps 756 mmHg 71%
    23:00 +6°C° 0 mm 2 mps 755 mmHg 71%
    Show more